DW1415 Kearny NJ US current weather conditions

sailwx.info

Wind from 045

Air temperature -0.6° C
Dewpoint -8.7° C

Last reported at 2019-Dec-12 23:10 UTC.
Time now 2019-Dec-12 23:42 UTC

Location: N 40°46' W 074°08'.
View on Google Maps.

See reports from other nearby stations

  
Tides and Currents Weather Stations Pressure Air Temp Water Temp Dewpoint Dewpoint Depression Visibility Wind Speed Wind Dir Waves Ship Positions
date/time (UTC)wind fromknots sea level pressurealtimeterstation pressurevisibilityair tempwater tempwave heightnotes
2019-Dec-12 23:10 045 -0.6
2019-Dec-12 23:05 045 -0.6
2019-Dec-12 23:00 045 -0.6
2019-Dec-12 22:55 063 -0.6
2019-Dec-12 22:50 063 -0.6
2019-Dec-12 22:45 068 -0.6
2019-Dec-12 22:40 083 -0.6
2019-Dec-12 22:35 090 -0.6
2019-Dec-12 22:30 090 -0.6
2019-Dec-12 22:25 068 -0.6
2019-Dec-12 22:20 068 -0.6
2019-Dec-12 22:15 068 -1.1
2019-Dec-12 22:10 068 -0.6
2019-Dec-12 22:05 068 -0.6
2019-Dec-12 22:00 068 -0.6
2019-Dec-12 21:55 068 -0.6
2019-Dec-12 21:50 068 -0.6
2019-Dec-12 21:45 068 -0.6
2019-Dec-12 21:40 068 -0.6
2019-Dec-12 21:35 068 -0.6
2019-Dec-12 21:30 068 -0.6
2019-Dec-12 21:25 068 -0.0
2019-Dec-12 21:20 068 -0.0
2019-Dec-12 21:15 045 -0.0
2019-Dec-12 21:10 045 -0.0
2019-Dec-12 21:05 045 0.6
2019-Dec-12 21:00 045 0.6
2019-Dec-12 20:55 045 0.6
2019-Dec-12 20:50 045 0.6
2019-Dec-12 20:45 045 0.6
2019-Dec-12 20:40 045 1.1
2019-Dec-12 20:35 068 1.1
2019-Dec-12 20:30 068 1.1
2019-Dec-12 20:25 068 1.1
2019-Dec-12 20:20 025 1.7
2019-Dec-12 20:15 068 1.7
2019-Dec-12 20:10 068 1.7
2019-Dec-12 20:05 028 1.7
2019-Dec-12 20:00 068 1.7
2019-Dec-12 19:55 068 1.7
2019-Dec-12 19:50 023 0 gusting 1 1.7
2019-Dec-12 19:45 090 2.2
2019-Dec-12 19:40 112 2.2
2019-Dec-12 19:35 206 2.2
2019-Dec-12 19:30 158 2.2
2019-Dec-12 19:25 180 2.8
2019-Dec-12 19:20 180 2.8
2019-Dec-12 19:15 180 2.8
2019-Dec-12 19:10 180 3.3
2019-Dec-12 19:05 225 3.3
2019-Dec-12 19:00 306 3.3
2019-Dec-12 18:55 3.3
2019-Dec-12 18:50 3.3
2019-Dec-12 18:45 164 3.3
2019-Dec-12 18:40 158 3.3
2019-Dec-12 18:35 202 0 gusting 4 3.3
2019-Dec-12 18:30 207 0 gusting 4 3.3
2019-Dec-12 18:25 193 0 gusting 4 3.3
2019-Dec-12 18:20 219 3.3
2019-Dec-12 18:15 217 0 gusting 6 3.3
2019-Dec-12 18:10 164 0 gusting 6 3.3
2019-Dec-12 18:05 158 2.8
2019-Dec-12 18:00 180 1 gusting 5 2.8
2019-Dec-12 17:55 199 1 gusting 5 3.3
2019-Dec-12 17:50 196 1 gusting 6 3.3
2019-Dec-12 17:45 249 3.3
2019-Dec-12 17:40 195 1 gusting 6 3.3
2019-Dec-12 17:35 202 1 gusting 5 3.3
2019-Dec-12 17:30 277 0 gusting 6 3.3
2019-Dec-12 17:25 233 0 gusting 6 3.3
2019-Dec-12 17:20 270 1 gusting 6 3.3
2019-Dec-12 17:15 181 1 gusting 6 3.3
2019-Dec-12 17:10 223 0 gusting 5 2.8
2019-Dec-12 17:05 289 1 gusting 7 2.8
2019-Dec-12 17:00 189 1 gusting 7 2.8
2019-Dec-12 16:55 259 0 gusting 6 2.8
2019-Dec-12 16:50 289 0 gusting 6 2.8
2019-Dec-12 16:45 188 1 gusting 10 2.8
2019-Dec-12 16:40 208 2 gusting 10 2.8
2019-Dec-12 16:35 219 2 gusting 6 3.3
2019-Dec-12 16:30 206 0 gusting 6 2.8
2019-Dec-12 16:25 199 0 gusting 10 2.8
2019-Dec-12 16:20 204 2 gusting 10 2.8
2019-Dec-12 16:15 183 0 gusting 7 2.8
2019-Dec-12 16:10 196 0 gusting 7 2.8
2019-Dec-12 16:05 210 2 gusting 7 3.3
2019-Dec-12 16:00 175 0 gusting 7 2.8
2019-Dec-12 15:55 204 1 gusting 7 2.8
2019-Dec-12 15:50 176 3 gusting 7 3.3
2019-Dec-12 15:45 202 1 gusting 6 3.3
2019-Dec-12 15:40 217 3.3
2019-Dec-12 15:35 218 2 gusting 7 2.8
2019-Dec-12 15:30 180 2.2
2019-Dec-12 15:25 185 1 gusting 6 2.2
2019-Dec-12 15:20 221 0 gusting 6 2.8
2019-Dec-12 15:15 248 2 gusting 6 2.8
2019-Dec-12 15:10 188 4 gusting 6 2.8
2019-Dec-12 15:05 210 2 gusting 7 2.8
2019-Dec-12 15:00 210 0 gusting 7 2.8
2019-Dec-12 14:55 150 0 gusting 6 3.3
2019-Dec-12 14:50 269 1 gusting 6 3.3
2019-Dec-12 14:45 171 2 gusting 6 3.3
2019-Dec-12 14:40 278 0 gusting 6 3.3
2019-Dec-12 14:35 167 2 gusting 6 3.3
2019-Dec-12 14:30 209 0 gusting 6 2.8
2019-Dec-12 14:25 256 3 gusting 8 2.8
2019-Dec-12 14:20 161 1 gusting 8 2.2
2019-Dec-12 14:15 171 2 gusting 7 2.2
2019-Dec-12 14:10 188 1 gusting 7 2.2
2019-Dec-12 14:05 190 2 gusting 12 1.7
2019-Dec-12 14:00 196 2 gusting 12 1.7
2019-Dec-12 13:55 186 1 gusting 8 1.7
2019-Dec-12 13:50 188 4 gusting 8 1.7
2019-Dec-12 13:45 170 1 gusting 7 1.1
2019-Dec-12 13:40 180 1 gusting 8 1.1
2019-Dec-12 13:35 245 1 gusting 8 0.6
2019-Dec-12 13:30 192 1 gusting 6 -0.0
2019-Dec-12 13:25 180 0 gusting 5 -1.1
2019-Dec-12 13:20 177 1 gusting 5 -2.8
2019-Dec-12 13:15 180 -3.3
2019-Dec-12 13:10 251 -3.3
2019-Dec-12 13:05 248 0 gusting 5 -3.9
2019-Dec-12 13:00 246 -3.9
2019-Dec-12 12:55 223 0 gusting 6 -3.9
2019-Dec-12 12:50 186 -3.9
2019-Dec-12 12:45 202 0 gusting 2 -3.9
2019-Dec-12 12:40 202 -3.9
2019-Dec-12 12:35 216 -4.4
2019-Dec-12 12:30 270 -4.4
2019-Dec-12 12:25 174 1 gusting 4 -4.4
2019-Dec-12 12:20 217 -4.4
2019-Dec-12 12:15 221 -4.4
2019-Dec-12 12:10 158 -4.4
2019-Dec-12 12:05 228 -4.4
2019-Dec-12 12:00 158 -4.4
2019-Dec-12 11:55 176 0 gusting 5 -4.4
2019-Dec-12 11:50 246 -4.4
2019-Dec-12 11:45 180 -4.4
2019-Dec-12 11:40 259 -4.4
2019-Dec-12 11:35 255 -3.9
2019-Dec-12 11:30 225 -3.9
2019-Dec-12 11:25 202 -3.9
2019-Dec-12 11:20 221 -3.9
2019-Dec-12 11:15 248 0 gusting 2 -3.9
2019-Dec-12 11:10 202 -3.9
2019-Dec-12 11:05 180 -3.9
2019-Dec-12 11:00 180 -3.9
2019-Dec-12 10:55 183 0 gusting 6 -3.3
2019-Dec-12 10:50 183 1 gusting 6 -3.3
2019-Dec-12 10:45 180 -3.3
2019-Dec-12 10:40 177 0 gusting 5 -3.3
2019-Dec-12 10:35 184 0 gusting 2 -3.3
2019-Dec-12 10:30 176 0 gusting 4 -3.3
2019-Dec-12 10:25 202 0 gusting 4 -3.3
2019-Dec-12 10:20 201 -3.9
2019-Dec-12 10:15 202 -3.9
2019-Dec-12 10:10 180 -3.9
2019-Dec-12 10:05 180 -3.9
2019-Dec-12 10:00 180 -3.9
2019-Dec-12 09:55 180 -3.9
2019-Dec-12 09:50 180 -3.9
2019-Dec-12 09:45 180 -3.3
2019-Dec-12 09:40 180 -3.3
2019-Dec-12 09:35 180 -3.3
2019-Dec-12 09:30 180 -3.3
2019-Dec-12 09:25 180 -3.3
2019-Dec-12 09:20 180 -3.3
2019-Dec-12 09:15 180 -3.3
2019-Dec-12 09:10 180 -2.8
2019-Dec-12 09:05 180 -2.8
2019-Dec-12 09:00 180 -2.8
2019-Dec-12 08:55 193 -2.8
2019-Dec-12 08:50 180 1 gusting 5 -2.8
2019-Dec-12 08:45 180 -2.8
2019-Dec-12 08:40 189 -2.8
2019-Dec-12 08:35 180 -2.8
2019-Dec-12 08:30 202 -2.8
2019-Dec-12 08:25 202 -2.8
2019-Dec-12 08:20 270 0 gusting 6 -2.2
2019-Dec-12 08:15 180 2 gusting 6 -2.8
2019-Dec-12 08:10 202 0 gusting 5 -2.8
2019-Dec-12 08:05 158 0 gusting 8 -2.8
2019-Dec-12 08:00 202 1 gusting 8 -2.8
2019-Dec-12 07:55 218 0 gusting 4 -2.8
2019-Dec-12 07:50 192 -2.8
2019-Dec-12 07:45 180 -2.8
2019-Dec-12 07:40 180 0 gusting 4 -2.8
2019-Dec-12 07:35 180 -2.8
2019-Dec-12 07:30 135 -2.8
2019-Dec-12 07:25 180 -2.2
2019-Dec-12 07:20 180 -2.2
2019-Dec-12 07:10 202 -2.2
2019-Dec-12 07:05 202 1 gusting 4 -2.2
2019-Dec-12 07:00 158 -2.2
2019-Dec-12 06:55 180 -2.2
2019-Dec-12 06:50 158 -2.2
2019-Dec-12 06:45 187 -2.2
2019-Dec-12 06:40 187 -1.7
2019-Dec-12 06:35 196 1 gusting 5 -1.7
2019-Dec-12 06:30 202 0 gusting 5 -1.7
2019-Dec-12 06:25 202 -1.7
2019-Dec-12 06:20 181 0 gusting 6 -1.7
2019-Dec-12 06:15 186 0 gusting 6 -1.7
2019-Dec-12 06:10 173 0 gusting 2 -1.7
2019-Dec-12 06:05 202 0 gusting 6 -1.7
2019-Dec-12 06:00 180 0 gusting 6 -1.7
2019-Dec-12 05:55 186 0 gusting 6 -1.7
2019-Dec-12 05:50 180 -1.7
2019-Dec-12 05:45 180 0 gusting 2 -1.7
2019-Dec-12 05:40 205 0 gusting 2 -1.7
2019-Dec-12 05:35 202 -1.7
2019-Dec-12 05:30 164 0 gusting 4 -1.7
2019-Dec-12 05:25 228 -1.7
2019-Dec-12 05:20 202 -1.7
2019-Dec-12 05:15 191 1 gusting 8 -1.7
2019-Dec-12 05:10 194 0 gusting 6 -1.7
2019-Dec-12 05:05 182 1 gusting 6 -1.7
2019-Dec-12 05:00 202 1 gusting 6 -1.1
2019-Dec-12 04:55 194 2 gusting 8 -1.1
2019-Dec-12 04:50 184 2 gusting 8 -1.7
2019-Dec-12 04:45 195 0 gusting 8 -1.7
2019-Dec-12 04:40 176 0 gusting 5 -1.7
2019-Dec-12 04:35 221 0 gusting 5 -1.7
2019-Dec-12 04:30 182 -1.1
2019-Dec-12 04:25 182 1 gusting 6 -1.1
2019-Dec-12 04:20 194 0 gusting 6 -1.1
2019-Dec-12 04:15 190 1 gusting 6 -1.1
2019-Dec-12 04:10 184 2 gusting 5 -1.1
2019-Dec-12 04:05 202 0 gusting 6 -1.1
2019-Dec-12 04:00 184 0 gusting 6 -1.1
2019-Dec-12 03:55 195 1 gusting 6 -1.1
2019-Dec-12 03:50 153 0 gusting 6 -1.1
2019-Dec-12 03:45 183 -1.1
2019-Dec-12 03:40 191 1 gusting 7 -1.1
2019-Dec-12 03:35 162 1 gusting 7 -1.1
2019-Dec-12 03:30 180 1 gusting 6 -1.1
2019-Dec-12 03:25 179 1 gusting 6 -1.1
2019-Dec-12 03:20 213 -1.1
2019-Dec-12 03:15 184 1 gusting 5 -1.1
2019-Dec-12 02:55 183 1 gusting 5 -1.1
2019-Dec-12 02:50 080 0 gusting 4 -1.1
2019-Dec-12 02:45 202 0 gusting 5 -0.6
2019-Dec-12 02:40 164 0 gusting 6 -0.6
2019-Dec-12 02:35 207 0 gusting 7 -0.6
2019-Dec-12 02:30 187 2 gusting 7 -0.6
2019-Dec-12 02:25 049 1 gusting 6 -0.6
2019-Dec-12 02:20 248 1 gusting 5 -0.6
2019-Dec-12 02:15 184 0 gusting 6 -0.6
2019-Dec-12 02:10 199 0 gusting 6 -0.6
2019-Dec-12 02:05 197 0 gusting 6 -0.6
2019-Dec-12 02:00 190 0 gusting 6 -0.6
2019-Dec-12 01:55 193 1 gusting 6 -0.6
2019-Dec-12 01:50 117 0 gusting 6 -0.6
2019-Dec-12 01:45 140 0 gusting 6 -0.6
2019-Dec-12 01:40 225 0 gusting 5 -0.6
2019-Dec-12 01:35 188 0 gusting 2 -0.0
2019-Dec-12 01:30 262 -0.0
2019-Dec-12 01:25 052 1 gusting 11 -0.0
2019-Dec-12 01:20 149 0 gusting 11 -0.0
2019-Dec-12 01:15 145 0 gusting 2 -0.0
2019-Dec-12 01:10 152 1 gusting 4 -0.0
2019-Dec-12 01:05 240 0 gusting 6 -0.0
2019-Dec-12 01:00 221 1 gusting 6 -0.0
2019-Dec-12 00:55 116 -0.0
2019-Dec-12 00:50 175 0 gusting 6 -0.0
2019-Dec-12 00:45 067 0 gusting 4 0.6
2019-Dec-12 00:40 277 0 gusting 7 0.6
2019-Dec-12 00:35 259 0 gusting 7 0.6
2019-Dec-12 00:30 172 0 gusting 6 0.6
2019-Dec-12 00:25 176 0.6
2019-Dec-12 00:20 180 0 gusting 4 0.6
2019-Dec-12 00:15 216 0 gusting 2 0.6
2019-Dec-12 00:10 074 0.6
2019-Dec-12 00:05 162 0 gusting 4 0.6
2019-Dec-12 00:00 273 0 gusting 4 0.6
2019-Dec-11 23:55 199 0.6
2019-Dec-11 23:50 172 0 gusting 4 0.6
2019-Dec-11 23:45 180 0.6
2019-Dec-11 23:40 185 0 gusting 4 0.6
2019-Dec-11 23:35 158 0.6
2019-Dec-11 23:30 112 0.6
2019-Dec-11 23:25 338 0.6
2019-Dec-11 23:20 130 0 gusting 2 0.6
2019-Dec-11 23:15 149 1.1
2019-Dec-11 23:10 079 1 gusting 6 1.1
2019-Dec-11 23:05 157 1.1
2019-Dec-11 23:00 147 0 gusting 4 1.1
2019-Dec-11 22:55 153 0 gusting 4 1.1
2019-Dec-11 22:50 158 1.1
2019-Dec-11 22:45 080 1.1
2019-Dec-11 22:40 135 0 gusting 5 1.1
2019-Dec-11 22:35 159 1.1
2019-Dec-11 22:30 137 1 gusting 5 1.1
2019-Dec-11 22:25 049 0 gusting 2 1.1
2019-Dec-11 22:20 118 0 gusting 1 1.1
2019-Dec-11 22:15 185 1.1
2019-Dec-11 22:10 191 0 gusting 4 1.1
2019-Dec-11 22:05 082 1.1
2019-Dec-11 22:00 088 0 gusting 4 1.1
2019-Dec-11 21:55 095 1.1
2019-Dec-11 21:50 093 1.7
2019-Dec-11 21:45 125 1.7
2019-Dec-11 21:40 088 4 gusting 6 1.7
2019-Dec-11 21:35 159 1.7
2019-Dec-11 21:30 111 1.7
2019-Dec-11 21:25 068 1.7
2019-Dec-11 21:20 112 0 gusting 5 1.7
2019-Dec-11 21:15 180 0 gusting 5 2.2
2019-Dec-11 21:10 085 0 gusting 6 2.2
2019-Dec-11 21:05 111 1 gusting 6 2.2
2019-Dec-11 21:00 188 0 gusting 4 2.8
2019-Dec-11 20:55 072 0 gusting 4 2.8
2019-Dec-11 20:50 144 1 gusting 6 2.8
2019-Dec-11 20:45 147 0 gusting 6 2.8
2019-Dec-11 20:40 061 0 gusting 6 2.8
2019-Dec-11 20:35 103 1 gusting 6 2.8
2019-Dec-11 20:30 236 0 gusting 6 2.8
2019-Dec-11 20:25 168 0 gusting 7 2.8
2019-Dec-11 20:20 202 0 gusting 7 2.2
2019-Dec-11 20:15 187 0 gusting 7 2.2
2019-Dec-11 20:10 074 2.2
2019-Dec-11 20:05 065 0 gusting 6 2.2
2019-Dec-11 20:00 073 0 gusting 6 2.2
2019-Dec-11 19:55 296 2 gusting 6 2.8
2019-Dec-11 19:50 122 2.8
2019-Dec-11 19:45 207 1 gusting 6 2.8
2019-Dec-11 19:40 045 0 gusting 6 3.3
2019-Dec-11 19:35 217 0 gusting 6 3.3
2019-Dec-11 19:30 183 0 gusting 5 3.3
2019-Dec-11 19:25 095 0 gusting 6 3.3
2019-Dec-11 19:20 072 0 gusting 6 3.9
2019-Dec-11 19:15 073 0 gusting 4 3.9
2019-Dec-11 19:10 068 0 gusting 2 4.4
2019-Dec-11 19:05 203 4.4
2019-Dec-11 19:00 202 3.9
2019-Dec-11 18:55 185 4.4
2019-Dec-11 18:50 068 0 gusting 1 5.0
2019-Dec-11 18:45 078 5.0
2019-Dec-11 18:40 045 4.4
2019-Dec-11 18:35 045 4.4
2019-Dec-11 18:30 045 3.9
2019-Dec-11 18:25 185 3.9
2019-Dec-11 18:20 180 3.9
2019-Dec-11 18:15 060 3.9
2019-Dec-11 18:10 180 3.9
2019-Dec-11 18:05 221 3.9
2019-Dec-11 18:00 183 0 gusting 4 3.9
2019-Dec-11 17:55 248 3.3
2019-Dec-11 17:50 173 0 gusting 0 3.3
2019-Dec-11 17:45 135 3.3
2019-Dec-11 17:40 180 3.3
2019-Dec-11 17:35 215 3.3
2019-Dec-11 17:30 202 0 gusting 4 3.9
2019-Dec-11 17:25 092 3.9
2019-Dec-11 17:20 090 3.3
2019-Dec-11 17:15 068 3.3
2019-Dec-11 17:10 135 3.3
2019-Dec-11 17:05 135 3.3
2019-Dec-11 17:00 128 3.3
2019-Dec-11 16:55 180 3.3
2019-Dec-11 16:50 264 3.3
2019-Dec-11 16:45 225 3.3
2019-Dec-11 16:40 229 3.3
2019-Dec-11 16:35 270 3.3
2019-Dec-11 16:30 270 3.3
2019-Dec-11 16:25 248 2.8
2019-Dec-11 16:20 248 2.8
2019-Dec-11 16:15 248 2.8
2019-Dec-11 16:10 227 2.2
2019-Dec-11 16:05 202 2.2
2019-Dec-11 16:00 202 2.2
2019-Dec-11 15:55 202 1.7
2019-Dec-11 15:50 202 1.7
2019-Dec-11 15:45 213 1.7
2019-Dec-11 15:40 225 1.7
2019-Dec-11 15:35 202 1.1
2019-Dec-11 15:30 202 1.1
2019-Dec-11 15:25 202 1.1
2019-Dec-11 15:20 202 1.1
2019-Dec-11 15:15 202 1.1
2019-Dec-11 15:10 202 0.6
2019-Dec-11 15:05 202 0.6
2019-Dec-11 15:00 202 0.6
2019-Dec-11 14:55 202 0.6
2019-Dec-11 14:50 202 0.6
2019-Dec-11 14:45 202 -0.0
2019-Dec-11 14:40 202 -0.0
2019-Dec-11 14:35 199 -0.0
2019-Dec-11 14:30 202 -0.0
2019-Dec-11 14:25 202 -0.0
2019-Dec-11 14:20 202 -0.0
2019-Dec-11 14:15 202 -0.6
2019-Dec-11 14:10 202 -0.6
2019-Dec-11 14:05 202 -0.6
2019-Dec-11 14:00 202 -0.6
2019-Dec-11 13:55 202 -0.6
2019-Dec-11 13:50 202 -0.0
2019-Dec-11 13:45 202 -0.0
2019-Dec-11 13:40 202 -0.0
2019-Dec-11 13:35 202 -0.0
2019-Dec-11 13:30 225 -0.0
2019-Dec-11 13:25 225 0 gusting 4 -0.0
2019-Dec-11 13:20 180 -0.0
2019-Dec-11 13:15 180 -0.0
2019-Dec-11 13:10 180 0 gusting 8 0.6
2019-Dec-11 13:05 187 0.6
2019-Dec-11 13:00 158 0.6
2019-Dec-11 12:55 158 0.6
2019-Dec-11 12:50 159 1 gusting 4 0.6
2019-Dec-11 12:45 180 0 gusting 4 0.6
2019-Dec-11 12:40 279 0.6
2019-Dec-11 12:35 158 0 gusting 2 0.6
2019-Dec-11 12:30 202 0.6
2019-Dec-11 12:25 200 0 gusting 1 0.6
2019-Dec-11 12:20 202 0.6
2019-Dec-11 12:15 200 0.6
2019-Dec-11 12:10 189 0.6
2019-Dec-11 12:05 222 0.6
2019-Dec-11 12:00 248 0.6
2019-Dec-11 11:55 245 0.6
2019-Dec-11 11:50 270 0.6
2019-Dec-11 11:45 267 0.6
2019-Dec-11 11:40 270 0.6
2019-Dec-11 11:35 291 0.6
2019-Dec-11 11:30 248 0.6
2019-Dec-11 11:25 270 0.6
2019-Dec-11 11:20 177 1 gusting 5 0.6
2019-Dec-11 11:15 180 0.6
2019-Dec-11 11:10 180 0.6
2019-Dec-11 11:05 180 0 gusting 2 0.6
2019-Dec-11 11:00 158 0.6
2019-Dec-11 10:55 164 0 gusting 2 0.6
2019-Dec-11 10:50 180 0.6
2019-Dec-11 10:45 180 0.6
2019-Dec-11 10:40 180 -0.0
2019-Dec-11 10:35 180 -0.0
2019-Dec-11 10:30 180 -0.0
2019-Dec-11 10:25 180 -0.0
2019-Dec-11 10:20 180 0.6
2019-Dec-11 10:15 180 0.6
2019-Dec-11 10:10 180 0.6
2019-Dec-11 10:05 180 0.6
2019-Dec-11 10:00 180 0 gusting 2 0.6
2019-Dec-11 09:55 180 0 gusting 6 0.6
2019-Dec-11 09:50 180 0.6
2019-Dec-11 09:45 158 0.6
2019-Dec-11 09:40 180 0 gusting 2 0.6
2019-Dec-11 09:35 183 0.6
2019-Dec-11 09:30 158 0.6
2019-Dec-11 09:25 180 0.6
2019-Dec-11 09:20 180 0 gusting 1 0.6
2019-Dec-11 09:15 202 0.6
2019-Dec-11 09:10 202 0.6
2019-Dec-11 09:05 200 1 gusting 4 0.6
2019-Dec-11 09:00 202 0 gusting 1 0.6
2019-Dec-11 08:55 202 0.6
2019-Dec-11 08:50 180 0 gusting 6 0.6
2019-Dec-11 08:45 180 0 gusting 5 0.6
2019-Dec-11 08:40 176 0 gusting 4 0.6
2019-Dec-11 08:35 179 0.6
2019-Dec-11 08:30 180 0.6
2019-Dec-11 08:25 180 0 gusting 6 0.6
2019-Dec-11 08:20 180 1.1
2019-Dec-11 08:15 294 1 gusting 4 1.1
2019-Dec-11 08:10 216 1.1
2019-Dec-11 08:05 225 1.1
2019-Dec-11 08:00 225 1.1
2019-Dec-11 07:55 209 0 gusting 7 1.7
2019-Dec-11 07:50 196 2 gusting 7 1.7
2019-Dec-11 07:45 180 1.7
2019-Dec-11 07:40 180 1.7
2019-Dec-11 07:35 202 0 gusting 2 1.7
2019-Dec-11 07:30 158 1.7
2019-Dec-11 07:25 185 1.7
2019-Dec-11 07:20 202 1.7
2019-Dec-11 07:15 202 1.7
2019-Dec-11 07:10 186 0 gusting 6 1.7
2019-Dec-11 07:05 180 1 gusting 4 1.7
2019-Dec-11 07:00 180 0 gusting 2 1.7
2019-Dec-11 06:55 180 1.7
2019-Dec-11 06:50 180 1.7
2019-Dec-11 06:45 180 1.7
2019-Dec-11 06:40 180 2.2
2019-Dec-11 06:35 180 2.2
2019-Dec-11 06:30 162 2.2
2019-Dec-11 06:25 186 2.2
2019-Dec-11 06:20 158 2.8
2019-Dec-11 06:15 202 2.8
2019-Dec-11 06:10 253 2.8
2019-Dec-11 06:05 184 0 gusting 6 2.8
2019-Dec-11 06:00 180 3.3
2019-Dec-11 05:55 183 3.3
2019-Dec-11 05:50 180 0 gusting 2 3.3
2019-Dec-11 05:45 202 3.3
2019-Dec-11 05:40 180 0 gusting 5 3.3
2019-Dec-11 05:35 183 3.3
2019-Dec-11 05:30 181 0 gusting 5 3.3
2019-Dec-11 05:25 180 3.3
2019-Dec-11 05:20 202 1 gusting 5 3.3
2019-Dec-11 05:15 202 3.3
2019-Dec-11 05:10 214 3.9
2019-Dec-11 05:05 165 0 gusting 5 3.9
2019-Dec-11 05:00 180 0 gusting 4 3.3
2019-Dec-11 04:55 172 0 gusting 8 3.3
2019-Dec-11 04:50 184 3.3
2019-Dec-11 04:45 189 1 gusting 6 3.3
2019-Dec-11 04:40 180 0 gusting 4 3.3
2019-Dec-11 04:35 211 3.3
2019-Dec-11 04:30 198 3.3
2019-Dec-11 04:25 180 0 gusting 6 3.3
2019-Dec-11 04:20 186 3.9
2019-Dec-11 04:15 269 1 gusting 7 3.9
2019-Dec-11 04:10 211 1 gusting 7 3.9
2019-Dec-11 04:05 112 1 gusting 6 3.9
2019-Dec-11 04:00 239 4.4
2019-Dec-11 03:55 197 1 gusting 8 4.4
2019-Dec-11 03:50 209 2 gusting 7 5.0
2019-Dec-11 03:45 174 0 gusting 6 5.0
2019-Dec-11 03:40 211 0 gusting 8 5.0
2019-Dec-11 03:35 183 5.0
2019-Dec-11 03:30 182 1 gusting 7 5.0
2019-Dec-11 03:25 239 2 gusting 14 5.6
2019-Dec-11 03:20 185 3 gusting 14 5.6
2019-Dec-11 03:15 190 0 gusting 10 6.1
2019-Dec-11 03:10 184 1 gusting 10 6.7
2019-Dec-11 03:05 192 1 gusting 5 6.7
2019-Dec-11 02:50 150 0 gusting 6 6.7
2019-Dec-11 02:45 248 6.7
2019-Dec-11 02:40 170 2 gusting 6 6.7
2019-Dec-11 02:35 027 0 gusting 6 6.7
2019-Dec-11 02:30 124 0 gusting 4 6.7
2019-Dec-11 02:25 207 0 gusting 8 6.7
2019-Dec-11 02:20 096 1 gusting 8 7.2
2019-Dec-11 02:15 042 2 gusting 8 7.2
2019-Dec-11 02:10 196 1 gusting 8 7.2
2019-Dec-11 02:05 280 1 gusting 10 7.2
2019-Dec-11 02:00 277 0 gusting 11 7.8
2019-Dec-11 01:55 177 1 gusting 11 7.8
2019-Dec-11 01:50 223 0 gusting 4 8.3
2019-Dec-11 01:45 171 0 gusting 4 8.3
2019-Dec-11 01:40 210 0 gusting 6 8.3
2019-Dec-11 01:35 124 0 gusting 12 8.3
2019-Dec-11 01:30 247 2 gusting 12 8.9
2019-Dec-11 01:25 200 0 gusting 10 9.4
2019-Dec-11 01:20 172 1 gusting 7 9.4
2019-Dec-11 01:15 208 1 gusting 7 10.0
2019-Dec-11 01:10 142 1 gusting 7 10.0
2019-Dec-11 01:05 187 1 gusting 6 10.6
2019-Dec-11 01:00 267 0 gusting 6 10.6
2019-Dec-11 00:55 193 1 gusting 7 10.6
2019-Dec-11 00:50 184 0 gusting 7 10.6
2019-Dec-11 00:45 242 1 gusting 7 10.6
2019-Dec-11 00:40 204 1 gusting 5 10.6
2019-Dec-11 00:35 226 10.6
2019-Dec-11 00:30 209 2 gusting 6 10.6
2019-Dec-11 00:25 181 10.6
2019-Dec-11 00:20 229 10.6
2019-Dec-11 00:15 204 11.1
2019-Dec-11 00:10 186 1 gusting 6 11.1
2019-Dec-11 00:05 191 0 gusting 6 11.1
2019-Dec-11 00:00 239 0 gusting 6 11.1
2019-Dec-10 23:55 202 0 gusting 6 11.1
2019-Dec-10 23:50 248 11.1
2019-Dec-10 23:45 204 1 gusting 6 11.1
2019-Dec-10 23:40 198 1 gusting 6 11.1
2019-Dec-10 23:35 147 1 gusting 6 11.1
2019-Dec-10 23:30 176 1 gusting 5 11.1
2019-Dec-10 23:25 261 1 gusting 6 11.1
2019-Dec-10 23:20 226 0 gusting 6 11.7
2019-Dec-10 23:15 093 11.7
2019-Dec-10 23:10 215 0 gusting 7 11.7
2019-Dec-10 23:05 176 11.7
2019-Dec-10 23:00 158 0 gusting 6 11.7